Dewpoint
55 53 52 42 20 22 23 25 34 33 41 49 47 50 49 47 46 40 55 49 54 64 66 69 72 72 72 72 72 73 72 71 71 71 71 70 69 68 67 68 68 68 68 69 69 70 68 69 70
53 53 46 37 19 13 21 31 31 32 43 45 45 45 44 44 43 43 48 45 61 63 66 70 72 71 71 72 72 72 72 71 71 71 71 71 71 69 69 68 68 69 69 71 70 70 69 70 70
52 51 41 33 21 12 28 33 30 31 34 34 42 40 40 40 40 40 41 46 52 48 55 68 71 71 71 71 71 71 71 71 72 71 71 71 71 71 70 69 69 70 70 70 70 70 70 70 69
51 45 36 25 28 32 33 34 31 30 29 38 41 39 38 41 40 40 41 46 46 45 45 56 64 70 71 71 71 70 71 71 72 72 72 71 71 71 71 71 71 71 70 70 71 70 70 70 69
46 36 29 30 31 32 29 27 28 27 30 35 38 37 37 39 40 41 40 43 45 44 43 46 55 57 63 69 71 71 70 70 71 71 71 70 71 71 71 72 71 71 70 70 70 70 70 70 69
40 33 27 29 30 27 29 27 26 26 27 26 39 36 36 39 38 39 39 38 42 42 40 41 48 53 55 57 64 68 70 71 70 71 71 71 71 71 71 72 72 71 70 70 70 71 70 70 69
35 30 25 29 27 27 26 28 26 26 25 24 35 36 35 35 39 37 34 35 37 39 38 38 41 45 50 53 59 61 65 68 70 70 71 70 70 71 70 71 72 72 71 72 72 72 71 71 70
32 26 26 27 27 27 28 28 28 25 24 26 31 33 32 32 34 32 32 34 35 37 41 41 42 43 44 46 54 57 60 64 67 69 69 68 68 69 70 70 70 71 71 71 71 71 72 71 71
31 24 25 26 27 26 28 25 25 26 23 22 21 25 26 27 29 30 32 35 37 44 45 48 47 46 46 45 47 51 53 58 63 66 67 67 67 67 67 67 68 69 70 71 71 71 71 70 69
29 25 25 28 27 26 25 24 23 22 22 19 18 20 23 26 29 32 33 37 42 45 48 50 50 49 49 49 49 48 47 51 55 59 65 66 66 66 66 66 66 68 68 69 70 70 70 69 67
30 27 30 30 28 26 24 23 23 21 20 20 18 19 22 28 31 36 41 42 45 48 49 50 50 51 50 50 51 49 49 50 52 55 58 63 65 65 65 64 64 64 64 65 67 68 69 67 67
28 31 31 31 29 25 22 22 19 21 19 20 20 22 27 31 38 45 47 47 48 48 49 49 50 51 51 51 51 50 49 51 50 50 55 61 64 64 64 64 64 64 64 64 65 66 67 66 67
29 30 31 27 26 24 21 21 18 18 21 22 21 29 32 41 45 47 47 47 46 46 47 48 49 50 50 51 51 51 51 51 49 50 53 58 59 61 62 63 64 65 66 64 64 65 66 66 66
30 29 26 25 25 26 19 21 24 16 20 21 24 34 40 45 45 46 46 45 45 45 46 47 48 49 49 49 50 50 52 51 50 50 51 53 56 59 61 61 62 63 64 65 65 65 65 66 65
26 22 24 25 24 26 27 16 18 18 22 24 33 42 45 46 45 44 45 45 45 45 46 46 47 48 48 48 49 50 51 52 51 50 51 52 54 56 58 60 61 61 62 62 63 63 64 63 64
20 19 14 23 25 29 18 -1 19 23 20 23 36 44 45 45 45 45 45 44 44 44 45 46 46 47 46 48 49 49 50 51 52 53 53 54 55 57 58 59 60 61 61 62 61 60 60 62 62
20 15 19 21 27 28 23 11 21 23 21 22 30 42 44 43 44 43 43 43 44 44 45 45 46 45 46 47 48 49 50 52 54 55 56 55 55 56 58 59 60 60 61 61 60 60 59 58 58
15 19 19 21 25 27 25 24 25 26 23 23 27 35 43 43 43 43 42 43 44 44 44 45 44 45 45 47 48 50 50 53 55 55 53 53 53 55 56 57 58 59 60 60 59 59 59 59 59
22 20 20 27 29 28 26 26 27 28 28 28 27 31 40 42 43 43 42 43 43 43 43 44 43 44 44 45 47 48 50 52 53 54 51 50 51 52 53 55 55 56 56 55 55 57 58 57 58
22 21 25 29 30 30 29 29 30 30 31 30 30 31 38 40 42 41 42 41 42 42 42 43 42 43 43 44 46 48 50 52 52 51 50 48 47 49 50 51 52 52 54 52 52 53 54 56 55
27 24 25 22 29 30 27 18 22 33 34 36 35 35 39 40 40 40 40 39 40 40 41 42 41 41 41 42 45 47 48 48 47 47 46 44 43 46 47 47 48 49 50 50 50 50 50 52 53
23 30 31 29 22 13 25 14 15 27 31 35 37 37 38 39 39 40 40 39 39 40 40 40 39 39 38 39 42 43 44 43 44 44 45 43 40 40 43 45 46 46 47 47 47 48 48 49 47
27 32 31 29 26 20 23 17 19 29 28 31 35 37 37 38 39 39 39 40 40 40 39 39 37 36 37 37 39 39 37 39 40 40 39 39 40 38 38 39 40 43 45 45 44 44 44 46 45
32 30 25 26 24 13 20 21 20 24 28 30 33 36 37 37 38 39 39 40 40 40 39 38 35 33 33 34 35 36 36 36 37 36 35 36 36 37 36 37 37 37 39 41 44 42 42 42 43
29 24 10 8 13 13 23 23 24 26 28 31 33 35 37 38 38 38 38 39 40 40 39 39 37 32 31 30 31 31 33 32 32 34 34 33 34 34 35 36 35 36 37 37 39 41 40 42 42
30 24 12 -4 11 16 25 23 25 29 33 34 35 35 37 37 38 38 38 39 39 40 39 38 37 32 28 26 27 28 28 30 30 29 30 29 29 30 29 29 30 31 32 34 34 35 34 36 36
29 23 27 20 18 23 18 22 25 29 33 35 35 36 35 36 36 37 38 38 39 39 39 38 36 29 26 24 25 24 25 24 25 24 25 25 25 23 26 26 26 27 27 30 30 31 29 30 31
31 31 23 21 11 15 16 18 21 26 30 34 35 35 36 36 36 37 37 38 39 39 39 38 35 32 24 25 23 22 22 22 22 22 22 22 21 23 23 23 24 24 25 27 28 28 29 28 29
32 28 28 25 22 16 16 14 25 27 31 30 31 35 35 36 36 36 37 38 38 38 38 37 33 31 25 23 23 22 21 22 22 22 22 22 20 21 20 20 21 22 22 22 25 26 27 27 27
31 29 27 21 18 22 21 20 25 31 31 32 32 33 34 36 36 37 37 37 37 38 37 36 35 29 29 24 23 22 22 22 22 23 23 21 20 20 21 20 21 21 22 22 21 23 25 25 25
Lifted_Index
6 6 6 7 6 4 4 4 6 6 5 5 5 5 4 4 4 4 3 3 2 1 -0 -1 -2 -2 -2 -2 -3 -3 -3 -3 -3 -3 -3 -3 -2 -1 -0 -0 -0 -0 -1 -1 -0 0 0 0 0
6 6 7 7 5 4 4 5 6 6 6 5 5 5 4 4 4 4 4 4 3 1 0 -1 -2 -2 -2 -2 -2 -2 -3 -3 -3 -3 -3 -3 -2 -2 -1 -1 -1 -1 -1 -1 -1 -0 0 0 0
6 6 7 7 5 4 4 5 6 7 7 6 6 5 5 5 5 6 8 7 4 2 1 -0 -1 -1 -1 -2 -2 -2 -2 -2 -2 -3 -3 -3 -3 -2 -2 -2 -1 -1 -1 -1 -1 -1 -0 0 0
6 6 7 6 5 5 5 6 7 7 7 7 6 6 6 6 7 9 11 10 7 3 2 1 -0 -1 -1 -1 -1 -1 -2 -2 -2 -2 -2 -2 -2 -2 -2 -2 -2 -1 -1 -1 -1 -1 -1 -0 0
7 7 6 5 5 6 7 7 7 7 7 7 7 7 7 8 10 11 13 13 11 8 5 2 1 0 -0 -1 -1 -1 -1 -1 -2 -2 -2 -2 -2 -2 -2 -2 -2 -1 -1 -1 -2 -2 -1 -1 0
7 7 5 4 5 6 7 7 7 7 7 7 8 8 8 9 11 12 13 14 14 12 10 6 4 2 1 0 -0 -0 -1 -1 -1 -1 -1 -2 -2 -2 -2 -2 -2 -1 -1 -1 -2 -2 -2 -1 -1
8 7 5 4 5 6 7 7 7 7 7 8 8 8 8 10 11 13 14 14 15 15 14 12 9 6 4 2 2 1 0 -0 -1 -1 -1 -1 -1 -1 -1 -2 -2 -2 -2 -2 -2 -2 -2 -1 -1
8 7 6 5 5 6 6 6 7 7 7 8 9 9 9 10 12 14 14 14 15 15 15 14 13 11 9 6 5 3 2 1 0 -0 -0 -0 -0 -1 -1 -1 -1 -1 -1 -2 -2 -2 -2 -2 -1
8 7 6 6 6 6 6 6 7 7 8 9 10 10 11 12 13 14 14 14 14 14 13 13 13 13 12 11 9 6 5 3 1 0 -0 -0 -0 -0 -0 -0 -0 -1 -1 -1 -2 -2 -2 -2 -1
8 7 7 7 7 7 7 7 7 8 8 9 10 11 12 13 13 13 13 13 13 12 12 12 12 12 12 12 11 10 8 6 4 2 1 0 -0 -1 -0 -0 -0 -0 -0 -1 -1 -1 -2 -1 -1
8 8 8 7 7 7 7 7 8 8 9 10 11 12 13 13 13 13 13 12 12 11 11 11 11 11 11 11 11 11 11 10 8 6 4 2 1 0 -0 -0 -1 -0 -0 -0 -1 -1 -1 -1 -1
8 8 8 8 8 8 8 8 9 10 11 12 12 13 13 13 13 12 12 11 11 11 10 11 11 11 12 12 12 12 11 11 11 10 8 6 4 2 1 1 0 -0 -0 -1 -1 -1 -1 -1 -1
8 8 8 8 8 8 9 9 9 10 11 12 12 12 12 12 12 11 11 11 10 10 11 11 11 12 12 12 12 12 12 12 11 11 10 9 7 5 3 2 2 1 0 -0 -0 -1 -1 -1 -1
8 8 8 8 9 9 9 9 10 10 11 11 11 11 11 11 11 10 10 10 10 11 11 12 12 12 13 13 13 13 13 12 11 11 10 10 9 7 5 4 3 2 1 1 0 -0 -0 -1 -1
8 8 8 8 9 9 9 9 9 10 10 10 10 11 11 10 10 10 10 10 10 11 12 12 12 13 13 13 12 12 12 12 11 10 10 10 9 8 6 5 4 3 2 1 1 0 -0 -1 -1
8 8 7 8 9 9 9 8 8 9 10 9 10 10 10 10 10 10 10 10 11 11 11 12 12 12 12 12 12 12 12 11 10 9 8 8 8 7 6 5 4 3 3 2 1 0 -0 -0 -1
7 6 6 7 8 9 8 7 8 9 9 9 9 10 10 10 10 10 10 10 11 11 11 11 12 12 12 12 11 11 11 11 9 8 8 7 6 6 6 5 5 4 3 2 1 1 0 -0 -1
6 6 6 6 7 8 7 7 7 9 9 9 9 9 10 10 10 10 10 11 11 11 11 12 12 12 12 11 11 10 10 10 9 9 8 7 7 6 6 5 5 4 3 2 2 1 0 -0 -1
7 6 6 6 7 7 6 6 7 8 8 8 9 9 10 10 10 10 10 11 11 11 11 12 12 11 11 11 10 10 9 9 9 9 8 8 7 7 6 5 4 4 3 2 2 1 1 0 -0
7 7 6 6 7 7 6 6 7 8 8 8 9 9 10 10 10 10 10 10 11 11 12 12 11 11 10 10 10 9 9 8 9 8 8 8 8 7 5 4 3 3 3 2 2 2 1 1 0
7 7 6 6 7 7 6 5 6 7 7 8 9 9 9 9 9 10 10 10 10 11 11 11 11 10 10 10 10 9 9 9 9 8 8 8 7 7 5 4 3 3 3 3 3 3 2 1 1
6 7 7 6 6 6 5 4 4 5 6 7 8 9 8 8 9 9 9 9 10 11 11 11 10 10 10 10 10 10 10 9 9 9 8 8 8 7 6 6 5 5 5 4 4 3 2 1 1
7 7 7 6 5 5 4 4 4 4 5 6 7 8 7 8 8 8 9 9 10 11 11 11 11 11 11 11 11 10 10 10 10 10 9 9 9 9 9 8 8 7 7 6 5 4 3 3 3
7 7 6 5 4 3 4 4 4 5 5 6 6 6 7 7 7 8 9 9 10 11 11 11 11 11 11 11 11 11 11 11 11 11 10 10 10 11 11 12 11 11 10 9 9 8 7 6 6
7 6 4 3 2 2 3 3 4 5 6 6 6 6 6 6 7 8 8 9 10 11 11 12 12 12 12 13 14 14 14 14 14 13 13 12 12 13 14 15 15 15 15 14 14 13 12 11 11
6 5 3 2 2 2 3 3 4 6 6 6 6 6 6 6 7 8 8 9 9 10 12 13 13 14 15 15 16 16 16 16 16 15 15 15 15 15 16 17 18 18 18 18 18 17 16 16 16
6 5 5 3 2 2 3 3 4 5 5 6 6 7 7 7 8 8 8 9 9 10 12 13 15 15 16 16 16 16 16 16 16 16 16 16 16 17 18 18 19 19 19 20 19 19 19 19 19
6 6 5 4 3 1 1 2 3 4 5 5 6 8 8 8 9 9 9 9 10 10 12 13 14 15 15 15 15 15 15 15 15 16 16 16 17 17 18 19 19 19 19 20 20 19 19 19 20
7 6 6 4 3 1 1 2 3 4 5 5 7 8 9 9 9 9 9 9 10 11 11 12 13 13 14 14 14 14 14 15 15 15 16 16 17 18 19 19 19 19 19 19 19 19 19 19 20
7 6 6 4 3 2 2 2 4 5 5 5 7 9 9 9 9 9 9 9 10 11 11 12 12 13 13 13 14 14 14 15 15 15 16 17 18 18 19 19 19 19 19 19 19 19 19 20 20